Time,TemperatureF,DewpointF,PressureIn,WindDirection,WindDirectionDegrees,WindSpeedMPH,WindSpeedGustMPH,Humidity,HourlyPrecipIn,Conditions,Clouds,dailyrainin,SoftwareType,DateUTC
2013-07-05 00:12:00,69.0,31.0,-100.00,SSW,204,1.0,3.0,24,-99.99,,,-99.99,,2013-07-05 07:12:00,
2013-07-05 00:23:00,69.0,32.0,-100.00,SSW,201,1.0,2.0,25,-99.99,,,-99.99,,2013-07-05 07:23:00,
2013-07-05 01:22:00,69.0,32.0,-100.00,SSW,196,1.0,2.0,25,-99.99,,,-99.99,,2013-07-05 08:22:00,
2013-07-05 01:43:00,69.0,32.0,-100.00,SSW,210,1.0,2.0,25,-99.99,,,-99.99,,2013-07-05 08:43:00,
2013-07-05 02:13:00,68.0,31.0,-100.00,SSW,200,1.0,2.0,25,-99.99,,,-99.99,,2013-07-05 09:13:00,
2013-07-05 03:13:00,68.0,28.0,-100.00,SSE,167,1.0,2.0,22,-99.99,,,-99.99,,2013-07-05 10:13:00,
2013-07-05 03:23:00,68.0,28.0,-100.00,SSE,167,1.0,2.0,22,-99.99,,,-99.99,,2013-07-05 10:23:00,
2013-07-05 03:44:00,68.0,27.0,-100.00,SE,130,1.0,2.0,21,-99.99,,,-99.99,,2013-07-05 10:44:00,
2013-07-05 03:55:00,68.0,24.0,-100.00,SE,130,1.0,2.0,19,-99.99,,,-99.99,,2013-07-05 10:55:00,
2013-07-05 04:23:00,67.0,23.0,-100.00,NE,52,1.0,1.0,19,-99.99,,,-99.99,,2013-07-05 11:23:00,
2013-07-05 04:45:00,67.0,25.0,-100.00,ESE,122,1.0,1.0,20,-99.99,,,-99.99,,2013-07-05 11:45:00,
2013-07-05 05:12:00,68.0,23.0,-100.00,ESE,112,0.0,1.0,18,-99.99,,,-99.99,,2013-07-05 12:12:00,
2013-07-05 05:23:00,68.0,23.0,-100.00,East,96,1.0,2.0,18,-99.99,,,-99.99,,2013-07-05 12:23:00,
2013-07-05 05:43:00,68.0,24.0,-100.00,ESE,109,0.0,1.0,19,-99.99,,,-99.99,,2013-07-05 12:43:00,
2013-07-05 06:12:00,66.0,25.0,-100.00,East,91,1.0,1.0,21,-99.99,,,-99.99,,2013-07-05 13:12:00,
2013-07-05 06:23:00,66.0,24.0,-100.00,ESE,110,1.0,1.0,20,-99.99,,,-99.99,,2013-07-05 13:23:00,
2013-07-05 06:44:00,67.0,25.0,-100.00,SE,126,1.0,2.0,20,-99.99,,,-99.99,,2013-07-05 13:44:00,
2013-07-05 07:12:00,67.0,31.0,-100.00,ESE,106,0.0,1.0,26,-99.99,,,-99.99,,2013-07-05 14:12:00,
2013-07-05 07:23:00,67.0,31.0,-100.00,ESE,106,0.0,1.0,26,-99.99,,,-99.99,,2013-07-05 14:23:00,
2013-07-05 07:35:00,68.0,33.0,-100.00,SE,124,1.0,1.0,27,-99.99,,,-99.99,,2013-07-05 14:35:00,
2013-07-05 07:44:00,69.0,35.0,-100.00,SE,129,1.0,2.0,28,-99.99,,,-99.99,,2013-07-05 14:44:00,
2013-07-05 07:54:00,71.0,35.0,-100.00,ESE,123,1.0,1.0,27,-99.99,,,-99.99,,2013-07-05 14:54:00,
2013-07-05 08:03:00,72.0,39.0,-100.00,ESE,112,0.0,1.0,30,-99.99,,,-99.99,,2013-07-05 15:03:00,
2013-07-05 08:43:00,72.0,38.0,-100.00,South,181,1.0,2.0,29,-99.99,,,-99.99,,2013-07-05 15:43:00,
2013-07-05 09:22:00,77.0,35.0,-100.00,WSW,240,1.0,3.0,22,-99.99,,,-99.99,,2013-07-05 16:22:00,
2013-07-05 09:33:00,79.0,36.0,-100.00,WSW,239,1.0,3.0,21,-99.99,,,-99.99,,2013-07-05 16:33:00,
2013-07-05 09:44:00,80.0,37.0,-100.00,SW,215,1.0,3.0,21,-99.99,,,-99.99,,2013-07-05 16:44:00,
2013-07-05 09:53:00,81.0,36.0,-100.00,SW,227,1.0,4.0,20,-99.99,,,-99.99,,2013-07-05 16:53:00,
2013-07-05 10:11:00,82.0,36.0,-100.00,WSW,244,1.0,3.0,19,-99.99,,,-99.99,,2013-07-05 17:11:00,
2013-07-05 10:22:00,81.0,36.0,-100.00,WSW,239,1.0,3.0,20,-99.99,,,-99.99,,2013-07-05 17:22:00,
2013-07-05 10:42:00,81.0,35.0,-100.00,SSW,204,1.0,3.0,19,-99.99,,,-99.99,,2013-07-05 17:42:00,
2013-07-05 11:22:00,85.0,37.0,-100.00,SSE,156,1.0,5.0,18,-99.99,,,-99.99,,2013-07-05 18:22:00,
2013-07-05 11:43:00,84.0,34.0,-100.00,SSW,206,2.0,7.0,17,-99.99,,,-99.99,,2013-07-05 18:43:00,
2013-07-05 11:53:00,85.0,35.0,-100.00,West,277,2.0,6.0,17,-99.99,,,-99.99,,2013-07-05 18:53:00,
2013-07-05 12:22:00,84.0,40.0,-100.00,NW,320,2.0,7.0,21,-99.99,,,-99.99,,2013-07-05 19:22:00,
2013-07-05 13:11:00,86.0,39.0,-100.00,NNW,348,2.0,6.0,19,-99.99,,,-99.99,,2013-07-05 20:11:00,
2013-07-05 13:22:00,85.0,44.0,-100.00,NNW,344,2.0,4.0,24,-99.99,,,-99.99,,2013-07-05 20:22:00,
2013-07-05 13:33:00,84.0,43.0,-100.00,NNW,340,2.0,4.0,24,-99.99,,,-99.99,,2013-07-05 20:33:00,
2013-07-05 14:11:00,83.0,47.0,-100.00,NNE,17,1.0,3.0,28,-99.99,,,-99.99,,2013-07-05 21:11:00,
2013-07-05 14:42:00,83.0,47.0,-100.00,NNE,12,2.0,5.0,29,-99.99,,,-99.99,,2013-07-05 21:42:00,
2013-07-05 14:53:00,84.0,47.0,-100.00,ENE,77,2.0,6.0,28,-99.99,,,-99.99,,2013-07-05 21:53:00,
2013-07-05 15:01:00,84.0,47.0,-100.00,North,10,1.0,6.0,28,-99.99,,,-99.99,,2013-07-05 22:01:00,
2013-07-05 15:11:00,84.0,47.0,-100.00,NNE,30,2.0,5.0,28,-99.99,,,-99.99,,2013-07-05 22:11:00,
2013-07-05 15:43:00,83.0,52.0,-100.00,NE,52,1.0,4.0,34,-99.99,,,-99.99,,2013-07-05 22:43:00,
2013-07-05 15:53:00,82.0,52.0,-100.00,ENE,73,2.0,6.0,35,-99.99,,,-99.99,,2013-07-05 22:53:00,
2013-07-05 16:11:00,82.0,50.0,-100.00,NE,43,1.0,5.0,33,-99.99,,,-99.99,,2013-07-05 23:11:00,
2013-07-05 16:42:00,83.0,47.0,-100.00,NNW,334,2.0,6.0,29,-99.99,,,-99.99,,2013-07-05 23:42:00,
2013-07-05 17:01:00,83.0,53.0,-100.00,NNE,25,1.0,4.0,36,-99.99,,,-99.99,,2013-07-06 00:01:00,
2013-07-05 17:11:00,83.0,53.0,-100.00,NNE,25,1.0,4.0,36,-99.99,,,-99.99,,2013-07-06 00:11:00,
2013-07-05 17:22:00,83.0,53.0,-100.00,NNE,15,2.0,5.0,36,-99.99,,,-99.99,,2013-07-06 00:22:00,
2013-07-05 17:33:00,82.0,53.0,-100.00,NE,47,2.0,5.0,37,-99.99,,,-99.99,,2013-07-06 00:33:00,
2013-07-05 17:53:00,81.0,47.0,-100.00,NW,320,2.0,5.0,30,-99.99,,,-99.99,,2013-07-06 00:53:00,
2013-07-05 18:11:00,80.0,43.0,-100.00,NNW,330,2.0,5.0,27,-99.99,,,-99.99,,2013-07-06 01:11:00,
2013-07-05 18:22:00,80.0,47.0,-100.00,North,356,1.0,1.0,31,-99.99,,,-99.99,,2013-07-06 01:22:00,
2013-07-05 18:53:00,79.0,53.0,-100.00,ESE,103,2.0,5.0,40,-99.99,,,-99.99,,2013-07-06 01:53:00,
2013-07-05 19:11:00,79.0,52.0,-100.00,NE,53,1.0,6.0,39,-99.99,,,-99.99,,2013-07-06 02:11:00,
2013-07-05 19:33:00,78.0,50.0,-100.00,North,3,1.0,2.0,37,-99.99,,,-99.99,,2013-07-06 02:33:00,
2013-07-05 19:43:00,77.0,49.0,-100.00,ENE,58,1.0,2.0,37,-99.99,,,-99.99,,2013-07-06 02:43:00,
2013-07-05 19:52:00,77.0,48.0,-100.00,NNE,15,1.0,2.0,36,-99.99,,,-99.99,,2013-07-06 02:52:00,
2013-07-05 20:11:00,74.0,46.0,-100.00,SW,218,1.0,1.0,37,-99.99,,,-99.99,,2013-07-06 03:11:00,
2013-07-05 21:12:00,66.0,46.0,-100.00,ESE,122,0.0,1.0,48,-99.99,,,-99.99,,2013-07-06 04:12:00,
2013-07-05 21:22:00,66.0,46.0,-100.00,ESE,122,0.0,1.0,48,-99.99,,,-99.99,,2013-07-06 04:22:00,
2013-07-05 21:33:00,65.0,45.0,-100.00,ESE,120,1.0,1.0,49,-99.99,,,-99.99,,2013-07-06 04:33:00,
2013-07-05 21:43:00,64.0,44.0,-100.00,ESE,120,0.0,1.0,49,-99.99,,,-99.99,,2013-07-06 04:43:00,
2013-07-05 21:53:00,65.0,45.0,-100.00,ESE,120,1.0,1.0,49,-99.99,,,-99.99,,2013-07-06 04:53:00,
2013-07-05 22:11:00,65.0,45.0,-100.00,ESE,107,1.0,1.0,49,-99.99,,,-99.99,,2013-07-06 05:11:00,
2013-07-05 22:22:00,65.0,46.0,-100.00,ESE,108,0.0,1.0,50,-99.99,,,-99.99,,2013-07-06 05:22:00,
2013-07-05 22:33:00,65.0,46.0,-100.00,ESE,114,1.0,1.0,51,-99.99,,,-99.99,,2013-07-06 05:33:00,
2013-07-05 22:42:00,65.0,46.0,-100.00,SE,124,1.0,1.0,51,-99.99,,,-99.99,,2013-07-06 05:42:00,
2013-07-05 22:53:00,64.0,45.0,-100.00,ESE,107,0.0,1.0,51,-99.99,,,-99.99,,2013-07-06 05:53:00,
2013-07-05 23:12:00,64.0,45.0,-100.00,ESE,104,0.0,1.0,51,-99.99,,,-99.99,,2013-07-06 06:12:00,
2013-07-05 23:22:00,64.0,45.0,-100.00,ESE,104,0.0,1.0,51,-99.99,,,-99.99,,2013-07-06 06:22:00,
2013-07-05 23:43:00,66.0,46.0,-100.00,ESE,110,1.0,2.0,48,-99.99,,,-99.99,,2013-07-06 06:43:00,
2013-07-05 23:53:00,66.0,45.0,-100.00,ESE,118,1.0,2.0,47,-99.99,,,-99.99,,2013-07-06 06:53:00,